TAM074 SPJC-SKBO

Flight info

Callsign TAM074
Flight time N/A
Altitude 35000
Route AMVEX DCT TAP UL342 PLG UM779 GIR GIR5E
Aircraft B77W/H-SDE1E2E3FGHIJ2J3J4J5M1RWXY/LB1D1

Departure

Time N/A
Airport Jorge Chávez International Airport (SPJC)

Arrival

Time 2026-05-07 00:08
Airport El Dorado International Airport (SKBO)
Time Latitude Longitude Altitude Speed Heading
2026-05-06 21:45 -10.88133 -76.86079 35782 ft 468 kts 32°
2026-05-06 21:45 -10.82695 -76.82391 35830 ft 466 kts 25°
2026-05-06 21:46 -10.76631 -76.80221 35842 ft 461 kts
2026-05-06 21:46 -10.70259 -76.79377 35831 ft 461 kts
2026-05-06 21:47 -10.63876 -76.78630 35871 ft 461 kts
2026-05-06 21:47 -10.57490 -76.77904 35880 ft 461 kts
2026-05-06 21:48 -10.51079 -76.77185 35915 ft 461 kts
2026-05-06 21:48 -10.44709 -76.76478 35912 ft 461 kts
2026-05-06 21:49 -10.38305 -76.75769 35903 ft 462 kts
2026-05-06 21:49 -10.31881 -76.75060 35902 ft 462 kts
2026-05-06 21:50 -10.25500 -76.74357 35896 ft 463 kts
2026-05-06 21:50 -10.19068 -76.73649 35908 ft 460 kts
2026-05-06 21:51 -10.12684 -76.72946 35915 ft 462 kts
2026-05-06 21:51 -10.06262 -76.72240 35923 ft 462 kts
2026-05-06 21:52 -9.99842 -76.71534 35930 ft 463 kts
2026-05-06 21:52 -9.93401 -76.70827 35925 ft 464 kts
2026-05-06 21:53 -9.86984 -76.70122 35920 ft 462 kts
2026-05-06 21:53 -9.80561 -76.69418 35898 ft 464 kts
2026-05-06 21:54 -9.74145 -76.68713 35870 ft 463 kts
2026-05-06 21:54 -9.67710 -76.68008 35863 ft 463 kts
2026-05-06 21:55 -9.61283 -76.67303 35840 ft 464 kts
2026-05-06 21:55 -9.54820 -76.66594 35804 ft 464 kts
2026-05-06 21:56 -9.48422 -76.65893 35774 ft 464 kts
2026-05-06 21:56 -9.41983 -76.65188 35781 ft 464 kts
2026-05-06 21:57 -9.35512 -76.64479 35756 ft 464 kts
2026-05-06 21:57 -9.29074 -76.63775 35726 ft 465 kts
2026-05-06 21:58 -9.22631 -76.63070 35733 ft 465 kts
2026-05-06 21:58 -9.16181 -76.62364 35705 ft 464 kts
2026-05-06 21:59 -9.09747 -76.61661 35675 ft 465 kts
2026-05-06 21:59 -9.03324 -76.60958 35660 ft 465 kts
2026-05-06 22:00 -8.96870 -76.60253 35598 ft 465 kts
2026-05-06 22:00 -8.90411 -76.59548 35641 ft 466 kts
2026-05-06 22:01 -8.83920 -76.58839 35635 ft 466 kts
2026-05-06 22:01 -8.77477 -76.58136 35652 ft 465 kts
2026-05-06 22:02 -8.71041 -76.57434 35626 ft 466 kts
2026-05-06 22:02 -8.64564 -76.56728 35519 ft 466 kts
2026-05-06 22:03 -8.58129 -76.56026 35432 ft 465 kts
2026-05-06 22:03 -8.51627 -76.55318 35316 ft 467 kts
2026-05-06 22:04 -8.45195 -76.54617 35229 ft 466 kts
2026-05-06 22:04 -8.38720 -76.53912 35200 ft 466 kts
2026-05-06 22:05 -8.32254 -76.53208 35179 ft 467 kts
2026-05-06 22:05 -8.25792 -76.52504 35170 ft 466 kts
2026-05-06 22:06 -8.19346 -76.51803 35155 ft 467 kts
2026-05-06 22:06 -8.12862 -76.51098 35163 ft 466 kts
2026-05-06 22:07 -8.06404 -76.50396 35175 ft 467 kts
2026-05-06 22:07 -7.99935 -76.49693 35189 ft 467 kts
2026-05-06 22:08 -7.93451 -76.48988 35177 ft 467 kts
2026-05-06 22:08 -7.86977 -76.48284 35190 ft 466 kts
2026-05-06 22:09 -7.80523 -76.47584 35178 ft 468 kts
2026-05-06 22:09 -7.74042 -76.46880 35169 ft 467 kts
2026-05-06 22:10 -7.67535 -76.46174 35145 ft 467 kts
2026-05-06 22:10 -7.61102 -76.45476 35141 ft 468 kts
2026-05-06 22:11 -7.54610 -76.44772 35106 ft 467 kts
2026-05-06 22:11 -7.48087 -76.44065 35090 ft 469 kts
2026-05-06 22:12 -7.41627 -76.43365 35090 ft 468 kts
2026-05-06 22:12 -7.35105 -76.42657 35076 ft 468 kts
2026-05-06 22:13 -7.28630 -76.41956 35058 ft 469 kts
2026-05-06 22:13 -7.22122 -76.41251 35059 ft 468 kts
2026-05-06 22:14 -7.15647 -76.40550 35040 ft 468 kts
2026-05-06 22:14 -7.09158 -76.39848 35028 ft 468 kts
2026-05-06 22:15 -7.02649 -76.39144 35024 ft 469 kts
2026-05-06 22:15 -6.96130 -76.38439 35021 ft 468 kts
2026-05-06 22:16 -6.89647 -76.37737 35012 ft 468 kts
2026-05-06 22:16 -6.83156 -76.37036 35016 ft 469 kts
2026-05-06 22:17 -6.76666 -76.36334 35012 ft 467 kts
2026-05-06 22:17 -6.70168 -76.35632 35007 ft 470 kts
2026-05-06 22:18 -6.63688 -76.34659 34990 ft 468 kts 11°
2026-05-06 22:18 -6.57331 -76.33099 34999 ft 470 kts 12°
2026-05-06 22:19 -6.50999 -76.31537 35000 ft 468 kts 12°
2026-05-06 22:19 -6.44658 -76.29977 35004 ft 469 kts 12°
2026-05-06 22:20 -6.38282 -76.28412 35001 ft 469 kts 12°
2026-05-06 22:20 -6.31954 -76.26859 34992 ft 470 kts 12°
2026-05-06 22:21 -6.25575 -76.25295 34985 ft 468 kts 12°
2026-05-06 22:21 -6.19265 -76.23749 34966 ft 468 kts 12°
2026-05-06 22:22 -6.12950 -76.22202 34959 ft 466 kts 12°
2026-05-06 22:22 -6.06637 -76.20656 34952 ft 466 kts 12°
2026-05-06 22:23 -6.00317 -76.19109 34946 ft 468 kts 12°
2026-05-06 22:23 -5.93980 -76.17558 34946 ft 465 kts 12°
2026-05-06 22:24 -5.87657 -76.16010 34947 ft 465 kts 12°
2026-05-06 22:24 -5.81386 -76.14477 34948 ft 465 kts 12°
2026-05-06 22:25 -5.75056 -76.12929 34945 ft 467 kts 12°
2026-05-06 22:25 -5.68733 -76.11382 34947 ft 464 kts 12°
2026-05-06 22:26 -5.62438 -76.09843 34942 ft 467 kts 12°
2026-05-06 22:26 -5.56143 -76.08305 34934 ft 464 kts 12°
2026-05-06 22:27 -5.49810 -76.06757 34938 ft 464 kts 12°
2026-05-06 22:27 -5.43530 -76.05222 34931 ft 466 kts 12°
2026-05-06 22:28 -5.37236 -76.03685 34933 ft 463 kts 12°
2026-05-06 22:28 -5.30969 -76.02155 34930 ft 465 kts 12°
2026-05-06 22:29 -5.24692 -76.00622 34929 ft 462 kts 12°
2026-05-06 22:29 -5.18387 -75.99083 34928 ft 464 kts 12°
2026-05-06 22:30 -5.12094 -75.97547 34926 ft 464 kts 12°
2026-05-06 22:30 -5.05844 -75.96022 34928 ft 462 kts 12°
2026-05-06 22:31 -4.99586 -75.94495 34924 ft 463 kts 13°
2026-05-06 22:31 -4.93286 -75.92958 34920 ft 461 kts 13°
2026-05-06 22:32 -4.87005 -75.91426 34925 ft 465 kts 13°
2026-05-06 22:32 -4.80748 -75.89901 34926 ft 463 kts 13°
2026-05-06 22:33 -4.74473 -75.88371 34921 ft 463 kts 13°
2026-05-06 22:33 -4.68181 -75.86838 34927 ft 464 kts 13°
2026-05-06 22:34 -4.61906 -75.85309 34933 ft 462 kts 13°
2026-05-06 22:34 -4.55589 -75.83770 34938 ft 463 kts 13°
2026-05-06 22:35 -4.49330 -75.82245 34945 ft 463 kts 13°
2026-05-06 22:35 -4.43017 -75.80708 34943 ft 463 kts 13°
2026-05-06 22:36 -4.36732 -75.79178 34943 ft 465 kts 13°
2026-05-06 22:36 -4.30425 -75.77642 34945 ft 465 kts 13°
2026-05-06 22:37 -4.24122 -75.76107 34950 ft 463 kts 13°
2026-05-06 22:37 -4.17802 -75.74569 34946 ft 468 kts 13°
2026-05-06 22:38 -4.11511 -75.73038 34944 ft 465 kts 13°
2026-05-06 22:38 -4.05210 -75.71505 34942 ft 464 kts 13°
2026-05-06 22:39 -3.98887 -75.69966 34944 ft 466 kts 13°
2026-05-06 22:39 -3.92560 -75.68427 34944 ft 466 kts 13°
2026-05-06 22:40 -3.86266 -75.66897 34950 ft 465 kts 13°
2026-05-06 22:40 -3.79951 -75.65362 34948 ft 466 kts 13°
2026-05-06 22:41 -3.70495 -75.63063 34948 ft 466 kts 13°
2026-05-06 22:42 -3.64202 -75.61533 34950 ft 465 kts 13°
2026-05-06 22:42 -3.57833 -75.59985 34949 ft 468 kts 13°
2026-05-06 22:43 -3.51519 -75.58451 34954 ft 466 kts 13°
2026-05-06 22:43 -3.45183 -75.56912 34948 ft 465 kts 13°
2026-05-06 22:44 -3.38875 -75.55379 34943 ft 467 kts 13°
2026-05-06 22:44 -3.32576 -75.53850 34949 ft 467 kts 13°
2026-05-06 22:45 -3.26198 -75.52301 34954 ft 467 kts 13°
2026-05-06 22:45 -3.19876 -75.50766 34948 ft 467 kts 13°
2026-05-06 22:46 -3.13546 -75.49229 34948 ft 467 kts 13°
2026-05-06 22:46 -3.07202 -75.47688 34949 ft 468 kts 13°
2026-05-06 22:47 -3.00859 -75.46149 34946 ft 467 kts 13°
2026-05-06 22:47 -2.94513 -75.44609 34951 ft 469 kts 12°
2026-05-06 22:48 -2.88151 -75.43066 34950 ft 468 kts 12°
2026-05-06 22:48 -2.81797 -75.41524 34953 ft 469 kts 12°
2026-05-06 22:49 -2.75464 -75.39988 34960 ft 469 kts 12°
2026-05-06 22:49 -2.69103 -75.38445 34962 ft 468 kts 12°
2026-05-06 22:50 -2.62745 -75.36903 34966 ft 470 kts 12°
2026-05-06 22:50 -2.56356 -75.35354 34965 ft 471 kts 12°
2026-05-06 22:51 -2.49984 -75.33808 34965 ft 470 kts 12°
2026-05-06 22:51 -2.43602 -75.32261 34964 ft 471 kts 12°
2026-05-06 22:52 -2.37212 -75.30711 34966 ft 472 kts 12°
2026-05-06 22:52 -2.30819 -75.29162 34968 ft 474 kts 12°
2026-05-06 22:53 -2.24395 -75.27605 34967 ft 471 kts 12°
2026-05-06 22:53 -2.17981 -75.26051 34967 ft 473 kts 12°
2026-05-06 22:54 -2.11552 -75.24493 34967 ft 475 kts 12°
2026-05-06 22:54 -2.05116 -75.22934 34967 ft 474 kts 12°
2026-05-06 22:55 -1.98697 -75.21378 34965 ft 476 kts 12°
2026-05-06 22:55 -1.92228 -75.19810 34966 ft 475 kts 12°
2026-05-06 22:56 -1.85815 -75.18257 34968 ft 474 kts 12°
2026-05-06 22:56 -1.79397 -75.16703 34968 ft 474 kts 12°
2026-05-06 22:57 -1.72972 -75.15147 34971 ft 475 kts 12°
2026-05-06 22:57 -1.66532 -75.13586 34976 ft 475 kts 12°
2026-05-06 22:58 -1.60087 -75.12026 34974 ft 476 kts 12°
2026-05-06 22:58 -1.53613 -75.10458 34973 ft 475 kts 12°
2026-05-06 22:59 -1.47212 -75.08907 34979 ft 474 kts 12°
2026-05-06 22:59 -1.40787 -75.07351 34979 ft 474 kts 12°
2026-05-06 23:00 -1.34347 -75.05792 34979 ft 475 kts 12°
2026-05-06 23:00 -1.27906 -75.04233 34982 ft 475 kts 12°
2026-05-06 23:01 -1.21454 -75.02670 34981 ft 475 kts 12°
2026-05-06 23:01 -1.14990 -75.01105 34984 ft 475 kts 12°
2026-05-06 23:02 -1.08558 -74.99548 34985 ft 475 kts 12°
2026-05-06 23:02 -1.02114 -74.97988 34988 ft 475 kts 12°
2026-05-06 23:03 -0.95693 -74.96434 34988 ft 474 kts 12°
2026-05-06 23:03 -0.89286 -74.94883 34988 ft 473 kts 12°
2026-05-06 23:04 -0.82877 -74.93332 34990 ft 473 kts 12°
2026-05-06 23:04 -0.76443 -74.91775 34990 ft 473 kts 12°
2026-05-06 23:05 -0.70046 -74.90226 34990 ft 474 kts 13°
2026-05-06 23:05 -0.63606 -74.88667 34988 ft 472 kts 13°
2026-05-06 23:06 -0.57215 -74.87121 34989 ft 473 kts 13°
2026-05-06 23:06 -0.50820 -74.85573 34989 ft 472 kts 13°
2026-05-06 23:07 -0.44424 -74.84025 34986 ft 470 kts 13°
2026-05-06 23:07 -0.38041 -74.82480 34987 ft 470 kts 13°
2026-05-06 23:08 -0.31666 -74.80937 34988 ft 471 kts 13°
2026-05-06 23:08 -0.25261 -74.79387 34987 ft 471 kts 13°
2026-05-06 23:09 -0.18863 -74.77926 35009 ft 473 kts
2026-05-06 23:09 -0.12272 -74.77734 34991 ft 473 kts 359°
2026-05-06 23:10 -0.05669 -74.77859 34987 ft 472 kts 359°
2026-05-06 23:10 0.00919 -74.77990 34981 ft 471 kts 359°
2026-05-06 23:11 0.07465 -74.78122 34972 ft 472 kts 358°
2026-05-06 23:11 0.14048 -74.78257 34973 ft 472 kts 358°
2026-05-06 23:12 0.20626 -74.78392 34974 ft 473 kts 358°
2026-05-06 23:12 0.27236 -74.78529 34972 ft 473 kts 358°
2026-05-06 23:13 0.33849 -74.78665 34975 ft 471 kts 358°
2026-05-06 23:13 0.40432 -74.78801 34972 ft 471 kts 358°
2026-05-06 23:14 0.46994 -74.78937 34975 ft 472 kts 358°
2026-05-06 23:14 0.53575 -74.79073 34976 ft 471 kts 358°
2026-05-06 23:15 0.60142 -74.79208 34978 ft 472 kts 358°
2026-05-06 23:15 0.66721 -74.79344 34984 ft 472 kts 358°
2026-05-06 23:16 0.73304 -74.79480 34991 ft 473 kts 358°
2026-05-06 23:16 0.79900 -74.79617 34988 ft 471 kts 358°
2026-05-06 23:17 0.86481 -74.79752 34998 ft 473 kts 357°
2026-05-06 23:17 0.93078 -74.79889 34998 ft 473 kts 357°
2026-05-06 23:18 0.99721 -74.80025 34998 ft 475 kts 357°
2026-05-06 23:18 1.06343 -74.80160 35001 ft 475 kts 357°
2026-05-06 23:19 1.13001 -74.80298 35004 ft 474 kts 357°
2026-05-06 23:19 1.19587 -74.80433 35005 ft 473 kts 357°
2026-05-06 23:20 1.26165 -74.80568 35003 ft 472 kts 358°
2026-05-06 23:20 1.32756 -74.80703 35009 ft 471 kts 358°
2026-05-06 23:21 1.39333 -74.80837 35014 ft 471 kts 357°
2026-05-06 23:21 1.45920 -74.80973 35009 ft 471 kts 357°
2026-05-06 23:22 1.52538 -74.81109 35014 ft 474 kts 358°
2026-05-06 23:22 1.59108 -74.81244 35021 ft 472 kts 358°
2026-05-06 23:23 1.65703 -74.81380 35023 ft 472 kts 358°
2026-05-06 23:23 1.72311 -74.81515 35026 ft 472 kts 358°
2026-05-06 23:24 1.78894 -74.81651 35028 ft 472 kts 358°
2026-05-06 23:24 1.85486 -74.81786 35032 ft 472 kts 358°
2026-05-06 23:25 1.92071 -74.81921 35034 ft 473 kts 358°
2026-05-06 23:25 1.98656 -74.82056 35038 ft 472 kts 358°
2026-05-06 23:26 2.05308 -74.82193 35047 ft 474 kts 358°
2026-05-06 23:26 2.11896 -74.82329 35057 ft 474 kts 358°
2026-05-06 23:27 2.18523 -74.82465 35057 ft 473 kts 358°
2026-05-06 23:27 2.25102 -74.82600 35072 ft 472 kts 358°
2026-05-06 23:28 2.31717 -74.82736 35084 ft 474 kts 358°
2026-05-06 23:28 2.38317 -74.82871 35100 ft 474 kts 358°
2026-05-06 23:29 2.44923 -74.83007 35115 ft 474 kts 358°
2026-05-06 23:29 2.51542 -74.83144 35127 ft 474 kts 358°
2026-05-06 23:30 2.58184 -74.83280 35150 ft 472 kts 358°
2026-05-06 23:30 2.64768 -74.83415 35165 ft 473 kts 358°
2026-05-06 23:31 2.71396 -74.83551 35187 ft 473 kts 358°
2026-05-06 23:31 2.77956 -74.83687 35206 ft 474 kts 358°
2026-05-06 23:32 2.84577 -74.83823 35204 ft 475 kts 358°
2026-05-06 23:32 2.91217 -74.83960 35215 ft 475 kts 358°
2026-05-06 23:33 2.97851 -74.84096 35204 ft 473 kts 358°
2026-05-06 23:33 3.04435 -74.84231 35214 ft 474 kts 358°
2026-05-06 23:34 3.10996 -74.84367 35231 ft 473 kts 358°
2026-05-06 23:34 3.17611 -74.84502 35235 ft 471 kts 358°
2026-05-06 23:35 3.24209 -74.84638 35245 ft 473 kts 358°
2026-05-06 23:35 3.30805 -74.84774 35231 ft 473 kts 358°
2026-05-06 23:36 3.37381 -74.84909 35195 ft 472 kts 358°
2026-05-06 23:36 3.44027 -74.85046 35183 ft 473 kts 358°
2026-05-06 23:37 3.50607 -74.85181 35151 ft 472 kts 358°
2026-05-06 23:37 3.57136 -74.85316 35133 ft 471 kts 358°
2026-05-06 23:38 3.63727 -74.85452 35104 ft 467 kts 358°
2026-05-06 23:38 3.70251 -74.85586 35088 ft 474 kts 358°
2026-05-06 23:38 3.73543 -74.85654 34770 ft 467 kts 359°
2026-05-06 23:39 3.76790 -74.85722 34021 ft 465 kts 359°
2026-05-06 23:39 3.80059 -74.85789 32686 ft 476 kts 359°
2026-05-06 23:39 3.83383 -74.85858 31286 ft 488 kts 359°
2026-05-06 23:39 3.86832 -74.85931 30099 ft 495 kts 359°
2026-05-06 23:40 3.90267 -74.86003 29319 ft 492 kts 359°
2026-05-06 23:40 3.93673 -74.86076 28761 ft 484 kts 359°
2026-05-06 23:40 3.97027 -74.86146 28224 ft 477 kts 359°
2026-05-06 23:40 4.00323 -74.86216 27658 ft 472 kts 359°
2026-05-06 23:41 4.03567 -74.86283 27095 ft 466 kts 360°
2026-05-06 23:41 4.06817 -74.86350 26513 ft 461 kts 360°
2026-05-06 23:41 4.10029 -74.86415 25931 ft 456 kts 360°
2026-05-06 23:41 4.13184 -74.86479 25368 ft 451 kts 360°
2026-05-06 23:42 4.16321 -74.86543 24826 ft 445 kts 360°
2026-05-06 23:42 4.19399 -74.86536 24268 ft 439 kts
2026-05-06 23:42 4.22453 -74.86198 23725 ft 432 kts
2026-05-06 23:42 4.25415 -74.85806 23196 ft 427 kts
2026-05-06 23:43 4.28331 -74.85419 22699 ft 421 kts
2026-05-06 23:43 4.31250 -74.85032 22182 ft 416 kts
2026-05-06 23:43 4.34107 -74.84654 21675 ft 411 kts
2026-05-06 23:43 4.36927 -74.84282 21267 ft 403 kts
2026-05-06 23:44 4.39645 -74.83924 21160 ft 387 kts
2026-05-06 23:44 4.42298 -74.83574 21045 ft 372 kts
2026-05-06 23:44 4.44833 -74.83237 20906 ft 360 kts
2026-05-06 23:44 4.47323 -74.82904 20626 ft 369 kts
2026-05-06 23:45 4.49911 -74.82560 20275 ft 369 kts
2026-05-06 23:45 4.52449 -74.82224 19972 ft 364 kts
2026-05-06 23:45 4.54927 -74.81896 19682 ft 360 kts
2026-05-06 23:45 4.57424 -74.81566 19383 ft 360 kts
2026-05-06 23:46 4.59900 -74.81238 19119 ft 356 kts
2026-05-06 23:46 4.62347 -74.80914 18851 ft 355 kts
2026-05-06 23:46 4.64804 -74.80590 18548 ft 352 kts
2026-05-06 23:46 4.67218 -74.80271 18241 ft 344 kts
2026-05-06 23:47 4.69561 -74.79961 17961 ft 336 kts
2026-05-06 23:47 4.71847 -74.79658 17702 ft 327 kts
2026-05-06 23:47 4.74112 -74.79357 17441 ft 320 kts
2026-05-06 23:47 4.76307 -74.79094 17198 ft 320 kts
2026-05-06 23:48 4.78567 -74.79228 17122 ft 324 kts 355°
2026-05-06 23:48 4.80803 -74.79530 17062 ft 325 kts 354°
2026-05-06 23:48 4.83052 -74.79855 17067 ft 324 kts 354°
2026-05-06 23:48 4.85289 -74.80174 17101 ft 324 kts 354°
2026-05-06 23:49 4.87552 -74.80496 17082 ft 326 kts 354°
2026-05-06 23:49 4.89811 -74.80814 16850 ft 326 kts 354°
2026-05-06 23:49 4.92059 -74.81130 16650 ft 320 kts 354°
2026-05-06 23:49 4.94278 -74.81357 16607 ft 320 kts
2026-05-06 23:50 4.96451 -74.80969 16617 ft 315 kts 17°
2026-05-06 23:50 5.00640 -74.79677 16610 ft 315 kts 20°
2026-05-06 23:50 5.02743 -74.79011 16599 ft 314 kts 19°
2026-05-06 23:51 5.04836 -74.78351 16625 ft 315 kts 19°
2026-05-06 23:51 5.06943 -74.77689 16620 ft 315 kts 20°
2026-05-06 23:51 5.09050 -74.77026 16612 ft 316 kts 19°
2026-05-06 23:51 5.11099 -74.76241 16543 ft 312 kts 33°
2026-05-06 23:52 5.12816 -74.74923 16578 ft 310 kts 43°
2026-05-06 23:52 5.14395 -74.73463 16580 ft 311 kts 44°
2026-05-06 23:52 5.15964 -74.71973 16556 ft 310 kts 44°
2026-05-06 23:52 5.17530 -74.70486 16566 ft 309 kts 44°
2026-05-06 23:53 5.19105 -74.68993 16582 ft 308 kts 44°
2026-05-06 23:53 5.20663 -74.67518 16623 ft 309 kts 44°
2026-05-06 23:53 5.22229 -74.66037 16622 ft 310 kts 44°
2026-05-06 23:53 5.23789 -74.64559 16606 ft 309 kts 45°
2026-05-06 23:54 5.25100 -74.62855 16568 ft 305 kts 63°
2026-05-06 23:54 5.25939 -74.60909 16622 ft 307 kts 68°
2026-05-06 23:54 5.26703 -74.58892 16634 ft 307 kts 69°
2026-05-06 23:54 5.27441 -74.56915 16648 ft 306 kts 69°
2026-05-06 23:55 5.28190 -74.54910 16658 ft 306 kts 69°
2026-05-06 23:55 5.28948 -74.52886 16701 ft 306 kts 69°
2026-05-06 23:55 5.29697 -74.50887 16699 ft 307 kts 69°
2026-05-06 23:55 5.30443 -74.48898 16692 ft 305 kts 69°
2026-05-06 23:56 5.30954 -74.46826 16682 ft 307 kts 85°
2026-05-06 23:56 5.30908 -74.44682 16712 ft 308 kts 91°
2026-05-06 23:56 5.30746 -74.42546 16732 ft 309 kts 92°
2026-05-06 23:56 5.30572 -74.40421 16732 ft 308 kts 92°
2026-05-06 23:57 5.30400 -74.38287 16744 ft 307 kts 92°
2026-05-06 23:57 5.30172 -74.36146 16742 ft 308 kts 101°
2026-05-06 23:57 5.29336 -74.34172 16746 ft 311 kts 121°
2026-05-06 23:57 5.27785 -74.32594 16763 ft 319 kts 142°
2026-05-06 23:58 5.25739 -74.31675 16593 ft 329 kts 163°
2026-05-06 23:58 5.23395 -74.31600 16285 ft 333 kts 187°
2026-05-06 23:58 5.21129 -74.32271 16103 ft 335 kts 195°
2026-05-06 23:58 5.18895 -74.33038 15878 ft 336 kts 194°
2026-05-06 23:59 5.16675 -74.33766 15623 ft 332 kts 193°
2026-05-06 23:59 5.14471 -74.34462 15397 ft 331 kts 193°
2026-05-06 23:59 5.12259 -74.35146 15172 ft 330 kts 193°
2026-05-06 23:59 5.10055 -74.35822 14935 ft 329 kts 192°
2026-05-07 00:00 5.07861 -74.36491 14705 ft 327 kts 192°
2026-05-07 00:00 5.05623 -74.37174 14450 ft 326 kts 192°
2026-05-07 00:00 5.03437 -74.37841 14227 ft 324 kts 192°
2026-05-07 00:00 5.01289 -74.38496 13980 ft 322 kts 192°
2026-05-07 00:01 4.99158 -74.39146 13765 ft 318 kts 192°
2026-05-07 00:01 4.97061 -74.39786 13529 ft 311 kts 192°
2026-05-07 00:01 4.94994 -74.40413 13272 ft 303 kts 189°
2026-05-07 00:01 4.92965 -74.40578 13080 ft 286 kts 166°
2026-05-07 00:02 4.91105 -74.39975 12953 ft 275 kts 144°
2026-05-07 00:02 4.89638 -74.38826 12785 ft 261 kts 132°
2026-05-07 00:02 4.88431 -74.37524 12591 ft 250 kts 123°
2026-05-07 00:02 4.87398 -74.36169 12413 ft 240 kts 122°
2026-05-07 00:03 4.86398 -74.34862 12269 ft 229 kts 122°
2026-05-07 00:03 4.85433 -74.33611 12152 ft 224 kts 122°
2026-05-07 00:03 4.84481 -74.32370 11997 ft 226 kts 123°
2026-05-07 00:03 4.83528 -74.31128 11786 ft 218 kts 122°
2026-05-07 00:04 4.82619 -74.29947 11543 ft 209 kts 123°
2026-05-07 00:04 4.81751 -74.28821 11325 ft 199 kts 123°
2026-05-07 00:04 4.80903 -74.27715 11130 ft 198 kts 123°
2026-05-07 00:04 4.80080 -74.26636 10906 ft 199 kts 123°
2026-05-07 00:05 4.79232 -74.25522 10669 ft 197 kts 123°
2026-05-07 00:05 4.78413 -74.24451 10437 ft 191 kts 124°
2026-05-07 00:05 4.77636 -74.23440 10219 ft 173 kts 123°
2026-05-07 00:05 4.76930 -74.22518 10026 ft 161 kts 123°
2026-05-07 00:06 4.76256 -74.21632 9838 ft 157 kts 124°
2026-05-07 00:06 4.75593 -74.20765 9648 ft 157 kts 124°
2026-05-07 00:06 4.74934 -74.19900 9461 ft 157 kts 124°
2026-05-07 00:06 4.74262 -74.19019 9266 ft 157 kts 123°
2026-05-07 00:07 4.73604 -74.18147 9068 ft 157 kts 122°
2026-05-07 00:07 4.72950 -74.17257 8811 ft 155 kts 125°
2026-05-07 00:07 4.72273 -74.16430 8609 ft 156 kts 127°
2026-05-07 00:07 4.71607 -74.15558 8475 ft 155 kts 124°
2026-05-07 00:08 4.70968 -74.14709 8373 ft 145 kts 124°
2026-05-07 00:08 4.70483 -74.14036 8376 ft 80 kts 135°
2026-05-07 00:08 4.70232 -74.13768 8375 ft 24 kts 146°
2026-05-07 00:08 4.70139 -74.13684 8374 ft 15 kts 141°
2026-05-07 00:09 4.70094 -74.13656 8373 ft 13 kts 152°
2026-05-07 00:09 4.70080 -74.13649 8373 ft 13 kts 153°
2026-05-07 00:09 4.70007 -74.13617 8372 ft 9 kts 156°
2026-05-07 00:09 4.69955 -74.13595 8373 ft 5 kts 156°
2026-05-07 00:10 4.69930 -74.13583 8373 ft 2 kts 155°
2026-05-07 00:10 4.69924 -74.13580 8373 ft 0 kts 155°
2026-05-07 00:10 4.69915 -74.13577 8373 ft 1 kts 159°
2026-05-07 00:10 4.69904 -74.13573 8373 ft 1 kts 164°
2026-05-07 00:11 4.69890 -74.13570 8374 ft 2 kts 170°
2026-05-07 00:11 4.69874 -74.13569 8374 ft 2 kts 181°
2026-05-07 00:11 4.69858 -74.13571 8374 ft 2 kts 193°
2026-05-07 00:11 4.69845 -74.13577 8375 ft 1 kts 207°
2026-05-07 00:12 4.69834 -74.13583 8375 ft 1 kts 214°
2026-05-07 00:12 4.69825 -74.13590 8375 ft 1 kts 215°
2026-05-07 00:12 4.69807 -74.13603 8376 ft 4 kts 218°
2026-05-07 00:12 4.69777 -74.13628 8377 ft 6 kts 220°
2026-05-07 00:13 4.69757 -74.13668 8378 ft 7 kts 279°
2026-05-07 00:13 4.69790 -74.13724 8378 ft 11 kts 306°
2026-05-07 00:13 4.69820 -74.13769 8378 ft 3 kts 290°
2026-05-07 00:13 4.69813 -74.13794 8379 ft 4 kts 227°
2026-05-07 00:14 4.69788 -74.13815 8380 ft 3 kts 219°
2026-05-07 00:14 4.69774 -74.13827 8380 ft 0 kts 218°
2026-05-07 00:14 4.69772 -74.13828 8380 ft 0 kts 218°